K8RLH Weather Reports


Display with metric or nautical units.
time (UTC)temp
F
wind
direction
speed
MPH
gust
MPH
rain 1hr
in
rain 24hr
in
rain mn
in
humidity
%
barometer
mb
20260504043755 58 200 0.0 1.0 0.00 0.00 0.00 55 1019.2
20260504043251 59 234 0.0 1.0 0.00 0.00 0.00 53 1019.2
20260504042749 59 237 1.0 3.0 0.00 0.00 0.00 53 1019.4
20260504042245 59 234 0.0 1.0 0.00 0.00 0.00 52 1019.2
20260504041742 60 188 1.0 3.0 0.00 0.00 0.00 51 1019.2
20260504041238 60 250 1.0 2.0 0.00 0.00 0.00 51 1019.2
20260504040734 60 229 2.0 6.0 0.00 0.00 0.00 50 1019.4
20260504040232 60 255 3.0 4.0 0.00 0.00 0.00 50 1019.4
20260504035727 60 258 4.0 4.0 0.00 0.01 0.01 49 1019.3
20260504035225 60 264 4.0 4.0 0.00 0.01 0.01 48 1019.4
20260504034723 60 259 2.0 6.0 0.00 0.01 0.01 48 1019.3
20260504034220 61 260 2.0 4.0 0.00 0.01 0.01 48 1019.3
20260504033717 61 261 1.0 4.0 0.00 0.01 0.01 48 1019.5
20260504033214 61 271 4.0 6.0 0.00 0.01 0.01 48 1019.3
20260504032711 61 236 1.0 2.0 0.00 0.01 0.01 48 1019.5
20260504032209 61 234 0.0 2.0 0.00 0.01 0.01 48 1019.2
20260504031705 61 231 1.0 3.0 0.00 0.01 0.01 47 1019.4
20260504031202 61 222 2.0 4.0 0.00 0.01 0.01 47 1019.4
20260504030658 61 264 2.0 3.0 0.00 0.01 0.01 47 1019.4
20260504030155 61 238 3.0 4.0 0.00 0.01 0.01 46 1019.2
20260504025652 61 260 4.0 4.0 0.00 0.01 0.01 46 1019.2
20260504025148 60 235 3.0 8.0 0.00 0.01 0.01 47 1019.3
20260504024646 60 245 1.0 2.0 0.00 0.01 0.01 47 1019.4
20260504024142 60 228 2.0 3.0 0.00 0.01 0.01 47 1019.2
20260504023639 60 228 1.0 2.0 0.00 0.01 0.01 49 1019.0
20260504023135 60 212 0.0 1.0 0.00 0.01 0.01 48 1019.1
20260504022632 60 231 1.0 2.0 0.00 0.01 0.01 48 1018.9
20260504022127 60 235 2.0 2.0 0.00 0.01 0.01 47 1019.1
20260504021626 60 221 2.0 3.0 0.00 0.01 0.01 48 1019.0
20260504021122 60 248 1.0 2.0 0.00 0.01 0.01 49 1019.0
20260504020619 59 222 1.0 1.0 0.00 0.01 0.01 51 1018.6
20260504020115 59 229 1.0 1.0 0.00 0.01 0.01 52 1018.8
20260504015612 59 220 0.0 1.0 0.00 0.01 0.01 57 1018.5
20260504015108 59 219 0.0 1.0 0.00 0.01 0.01 55 1018.6
20260504014604 60 219 0.0 1.0 0.00 0.01 0.01 53 1018.8
20260504014101 60 219 0.0 0.0 0.00 0.01 0.01 50 1018.5
20260504013559 60 219 1.0 1.0 0.00 0.01 0.01 49 1018.4
20260504013055 60 212 0.0 2.0 0.00 0.01 0.01 52 1018.4
20260504012553 59 196 1.0 1.0 0.00 0.01 0.01 52 1018.5
20260504012051 59 175 0.0 0.0 0.00 0.01 0.01 56 1018.3
20260504011547 59 175 0.0 0.0 0.00 0.01 0.01 54 1018.3
20260504011043 60 175 0.0 0.0 0.00 0.01 0.01 56 1018.3
20260504010539 60 175 0.0 0.0 0.00 0.01 0.01 54 1018.3
20260504010036 61 175 0.0 0.0 0.00 0.01 0.01 50 1018.2
20260504005532 61 172 0.0 0.0 0.00 0.01 0.01 54 1018.1
20260504005030 62 172 0.0 0.0 0.00 0.01 0.01 50 1018.2
20260504004528 62 172 0.0 0.0 0.00 0.01 0.01 49 1018.1
20260504004024 62 172 0.0 1.0 0.00 0.01 0.01 49 1018.2
20260504003520 63 172 0.0 0.0 0.00 0.01 0.01 48 1018.0
20260504003018 63 172 0.0 0.0 0.00 0.01 0.01 48 1018.0
20260504002514 64 171 0.0 0.0 0.00 0.01 0.01 47 1017.8
20260504002012 64 171 0.0 0.0 0.00 0.01 0.01 47 1018.0
20260504001509 64 171 0.0 1.0 0.00 0.01 0.01 44 1017.8
20260504001005 65 164 0.0 1.0 0.00 0.01 0.01 45 1017.8
20260504000503 65 169 0.0 1.0 0.00 0.01 0.01 44 1018.0
20260504000000 65 160 0.0 1.0 0.00 0.01 0.01 43 1017.9
20260503235458 66 158 0.0 0.0 0.00 0.01 0.01 42 1017.8
20260503234955 66 189 0.0 1.0 0.00 0.01 0.01 41 1017.7
20260503234452 67 191 0.0 2.0 0.00 0.01 0.01 41 1017.7
20260503233950 67 198 1.0 3.0 0.00 0.01 0.01 39 1017.7
20260503233446 67 156 0.0 1.0 0.00 0.01 0.01 39 1017.9
20260503232943 68 168 1.0 2.0 0.00 0.01 0.01 38 1017.9
20260503232440 68 213 2.0 2.0 0.00 0.01 0.01 37 1017.8
20260503231938 68 227 2.0 3.0 0.00 0.01 0.01 38 1017.8
20260503231435 68 176 2.0 4.0 0.00 0.01 0.01 37 1017.7
20260503230931 68 261 2.0 2.0 0.00 0.01 0.01 37 1017.8
20260503230428 68 240 3.0 4.0 0.00 0.01 0.01 36 1017.9
20260503225926 68 173 1.0 3.0 0.00 0.01 0.01 36 1018.0
20260503225422 68 249 2.0 4.0 0.00 0.01 0.01 37 1017.8
20260503224918 69 157 1.0 2.0 0.00 0.01 0.01 35 1018.2
20260503224415 69 171 2.0 4.0 0.00 0.01 0.01 36 1018.1
20260503223913 69 195 3.0 3.0 0.00 0.01 0.01 36 1017.9
20260503223411 69 194 2.0 3.0 0.00 0.01 0.01 35 1018.1
20260503222911 69 222 2.0 3.0 0.00 0.01 0.01 36 1018.1
20260503222409 69 180 2.0 4.0 0.00 0.01 0.01 35 1018.1
20260503221907 69 196 3.0 9.0 0.00 0.01 0.01 35 1018.0
20260503221406 69 181 1.0 2.0 0.00 0.01 0.01 36 1018.0
20260503220901 69 234 3.0 4.0 0.00 0.01 0.01 35 1018.0
20260503220358 69 231 6.0 8.0 0.00 0.01 0.01 35 1018.1
20260503215855 69 246 3.0 4.0 0.00 0.01 0.01 35 1018.2
20260503215352 68 227 3.0 4.0 0.00 0.01 0.01 35 1018.3
20260503214849 69 235 6.0 9.0 0.00 0.01 0.01 34 1018.3
20260503214347 69 230 3.0 6.0 0.00 0.01 0.01 35 1018.4
20260503213844 69 222 3.0 7.0 0.00 0.01 0.01 35 1018.2
20260503213342 68 233 3.0 4.0 0.00 0.01 0.01 36 1018.2
20260503212839 69 315 2.0 7.0 0.00 0.01 0.01 35 1018.3
20260503212337 68 276 3.0 7.0 0.00 0.01 0.01 34 1018.5
20260503211833 69 272 7.0 10.0 0.00 0.01 0.01 34 1018.5
20260503211330 69 253 1.0 3.0 0.00 0.01 0.01 35 1018.5
20260503210825 69 225 5.0 7.0 0.00 0.01 0.01 35 1018.5
20260503210323 70 255 6.0 7.0 0.00 0.01 0.01 34 1018.6
20260503205818 70 239 4.0 8.0 0.00 0.01 0.01 33 1018.6
20260503205315 70 281 1.0 6.0 0.00 0.01 0.01 34 1018.7
20260503204811 69 242 4.0 7.0 0.00 0.01 0.01 35 1018.9
20260503204309 69 250 0.0 3.0 0.00 0.01 0.01 35 1018.8
20260503203806 70 240 8.0 9.0 0.00 0.01 0.01 36 1018.8
20260503203303 70 252 4.0 6.0 0.00 0.01 0.01 36 1018.9
20260503202800 69 259 2.0 4.0 0.00 0.01 0.01 35 1019.1
20260503202258 69 259 2.0 7.0 0.00 0.01 0.01 39 1019.0
20260503201755 69 240 3.0 6.0 0.00 0.01 0.01 39 1019.3
20260503201253 68 253 3.0 9.0 0.00 0.01 0.01 38 1019.6
20260503200750 68 264 4.0 6.0 0.00 0.01 0.01 40 1019.3
20260503200246 68 251 1.0 4.0 0.00 0.01 0.01 40 1019.8
20260503195743 68 274 0.0 4.0 0.00 0.01 0.01 40 1019.8
20260503195239 68 267 3.0 10.0 0.00 0.01 0.01 42 1019.9
20260503194738 67 1 1.0 4.0 0.00 0.01 0.01 43 1019.9
20260503194233 67 245 6.0 7.0 0.00 0.01 0.01 43 1019.8
20260503193729 67 158 2.0 7.0 0.00 0.01 0.01 43 1020.0
20260503193225 67 253 3.0 3.0 0.00 0.01 0.01 44 1020.2
20260503192721 66 242 0.0 7.0 0.00 0.01 0.01 44 1020.6
20260503192216 67 235 3.0 6.0 0.00 0.01 0.01 46 1020.7
20260503191714 66 144 1.0 2.0 0.00 0.01 0.01 45 1020.7
20260503191211 66 255 4.0 4.0 0.00 0.01 0.01 45 1020.7
20260503190707 66 265 5.0 6.0 0.00 0.01 0.01 45 1020.9
20260503190204 66 226 5.0 8.0 0.00 0.01 0.01 45 1020.9
20260503185701 66 65 0.0 3.0 0.00 0.01 0.01 44 1020.8
20260503185156 65 160 0.0 2.0 0.00 0.01 0.01 45 1021.2
20260503184651 65 221 4.0 13.0 0.00 0.01 0.01 44 1021.3
20260503184148 65 243 7.0 11.0 0.00 0.01 0.01 45 1021.3
20260503183644 65 173 3.0 6.0 0.00 0.01 0.01 46 1021.2
20260503183142 65 205 2.0 2.0 0.00 0.01 0.01 47 1021.3
20260503182640 65 264 2.0 4.0 0.00 0.01 0.01 45 1021.2
20260503182139 64 287 4.0 7.0 0.00 0.01 0.01 43 1021.3
20260503181635 64 256 7.0 8.0 0.00 0.01 0.01 43 1021.2
20260503181132 64 300 3.0 8.0 0.00 0.01 0.01 45 1021.3
20260503180628 64 250 4.0 7.0 0.00 0.01 0.01 42 1021.3
20260503180126 64 202 1.0 4.0 0.00 0.01 0.01 45 1021.2
20260503175623 65 239 5.0 9.0 0.00 0.01 0.01 41 1021.4
20260503175120 65 3 0.0 2.0 0.00 0.01 0.01 44 1021.3
20260503174616 64 268 1.0 3.0 0.00 0.01 0.01 42 1021.3
20260503174114 64 252 2.0 6.0 0.00 0.01 0.01 41 1021.5
20260503173609 63 252 2.0 4.0 0.00 0.01 0.01 46 1021.6
20260503173105 63 282 4.0 11.0 0.00 0.01 0.01 43 1021.7
20260503172602 64 295 2.0 11.0 0.00 0.01 0.01 42 1021.6
20260503172100 64 320 2.0 3.0 0.00 0.01 0.01 41 1021.7
20260503171556 64 252 2.0 7.0 0.00 0.01 0.01 43 1021.9
20260503171054 64 304 3.0 6.0 0.00 0.01 0.01 41 1021.7
20260503170550 63 263 3.0 4.0 0.00 0.01 0.01 44 1021.8
20260503150942 59 167 2.0 4.0 0.00 0.01 0.01 56 1022.8
20260503150439 60 193 2.0 2.0 0.00 0.01 0.01 55 1022.9
20260503131332 52 68 1.0 3.0 0.00 0.01 0.01 77 1022.3
20260503130829 52 103 2.0 3.0 0.00 0.01 0.01 79 1022.4
20260503130327 51 63 0.0 1.0 0.00 0.01 0.01 85 1022.4
20260503110720 42 248 0.0 0.0 0.00 0.01 0.01 98 1021.3
20260503110218 42 248 0.0 0.0 0.00 0.01 0.01 98 1021.4
20260503100144 43 196 0.0 0.0 0.00 0.00 0.00 98 1020.6
20260503081527 45 188 0.0 0.0 0.00 0.00 0.00 97 1019.4
20260503081025 45 188 0.0 0.0 0.00 0.00 0.00 97 1019.4
20260503080520 45 188 0.0 0.0 0.00 0.00 0.00 97 1019.4
20260503072454 46 200 0.0 0.0 0.00 0.00 0.00 97 1019.1
20260503071951 46 200 0.0 0.0 0.00 0.00 0.00 97 1019.0
20260503071448 46 200 0.0 0.0 0.00 0.00 0.00 97 1019.0
20260503070944 46 200 0.0 0.0 0.00 0.00 0.00 97 1018.9
20260503070441 46 200 0.0 0.0 0.00 0.00 0.00 97 1018.8
20260503054900 47 200 0.0 0.0 0.00 0.00 0.00 96 1018.7
20260503054356 47 200 0.0 0.0 0.00 0.00 0.00 96 1018.6
20260503053854 48 200 0.0 0.0 0.00 0.00 0.00 96 1018.5
20260503053352 48 200 0.0 0.0 0.00 0.00 0.00 96 1018.6
20260503052848 48 200 0.0 0.0 0.00 0.00 0.00 96 1018.6
20260503052345 48 200 0.0 0.0 0.00 0.00 0.00 96 1018.6
20260503051841 48 200 0.0 0.0 0.00 0.00 0.00 96 1018.6
20260503051338 48 200 0.0 0.0 0.00 0.00 0.00 96 1018.7
20260503050835 48 200 0.0 0.0 0.00 0.00 0.00 96 1018.6
20260503050331 48 200 0.0 0.0 0.00 0.00 0.00 96 1018.5
20260503045829 48 200 0.0 0.0 0.00 0.00 0.00 96 1018.6
20260503045326 48 200 0.0 0.0 0.00 0.00 0.00 96 1018.7
20260503044822 49 200 0.0 0.0 0.00 0.00 0.00 96 1018.6
20260503044319 49 200 0.0 0.0 0.00 0.00 0.00 96 1018.7